Powrót do katalogu

STARLINK-34774

AktywnyŁącznośćVLEO
NORAD 66485·PAYLOAD·🇺🇸 United States

Wystrzelony Nov 15, 2025 z Cape Canaveral Space Force Station

Loading…

Następne Przeloty (najbliższe 24 godziny)

TLE

ŚwieżeSource: CelesTrak SupGP

Epoka: Sep 14, 2026, 21:13 UTC

1 66485C 25263A   26257.88451389  .00014639  00000+0  53012-3 0  2578
2 66485  43.0036   1.9502 0001634 275.4172 207.8483 15.27577781    19

Śledź STARLINK-34774 w czasie rzeczywistym z AllMySat

Download on the App Store